STARLINK-35795

Last updated on Fri Dec 05 2025 00:02:06 GMT+0000 (Coordinated Universal Time)

1 66369U 25254X 25338.11084277 .00328479 00000+0 21458-2 0 9993 2 66369 53.1567 317.7168 0003044 147.1731 212.9479 15.74349696 4324
UTC large
Height (km)
Speed (km/s)
/
Latitude / Longitude
Inclination (degrees)
Orbital Period (minutes)
Azimuth
Elevation
Range (km)
Doppler Factor

Next 0 passes for location: London (51.5072 / 0.1276)

Sorry there are no passes over London.